Location: Ab? ar R?sh Ba?r?
(24.1861°N, 32.8847°E)
Time: 21:55:26
(UTC+00:00)

H-2A R/B - Pass Details

Date: 04 June 2022
Orbit: 576 x 652 km, 98.5° (Epoch: 03 July)

Event Time Altitude Azimuth Distance (km) Brightness Sun altitude
Rises 18:16:56 0° 359° (N) 2,810 6.0 -20.9°
Reaches altitude 10° 18:19:13 10° 350° (N) 1,917 5.2 -21.3°
Maximum altitude 18:22:57 33° 286° (WNW) 1,010 3.7 -22.0°
Drops below altitude 10° 18:26:44 10° 222° (SW) 1,948 4.6 -22.6°
Enters shadow 18:29:04 - 212° (SSW) 2,859 5.4 -23.0°
